KAY870 HTKJ-FMCH

Flight info

Callsign KAY870
Flight time 1h 44m
Altitude 37000
Route OKNU2D MUMTU UN306 DV A401 KINAN KINA1V
Aircraft A21N/M-SDE3FGHIRWY/LB1

Departure

Time 2026-04-23 07:51
Airport Kilimanjaro International Airport (HTKJ)

Arrival

Time 2026-04-23 09:35
Airport Prince Said Ibrahim International Airport (FMCH)
Time Latitude Longitude Altitude Speed Heading
2026-04-23 07:27 -3.42535 37.06517 2946 ft 0 kts 87°
2026-04-23 07:43 -3.42535 37.06520 2946 ft 3 kts 88°
2026-04-23 07:43 -3.42554 37.06580 2945 ft 10 kts 137°
2026-04-23 07:43 -3.42615 37.06595 2941 ft 0 kts 184°
2026-04-23 07:44 -3.42635 37.06594 2939 ft 5 kts 184°
2026-04-23 07:44 -3.42689 37.06599 2937 ft 9 kts 155°
2026-04-23 07:44 -3.42717 37.06665 2935 ft 12 kts 86°
2026-04-23 07:44 -3.42713 37.06753 2934 ft 13 kts 88°
2026-04-23 07:45 -3.42712 37.06791 2934 ft 0 kts 90°
2026-04-23 07:45 -3.42712 37.06797 2934 ft 1 kts 90°
2026-04-23 07:45 -3.42713 37.06812 2934 ft 2 kts 95°
2026-04-23 07:45 -3.42717 37.06836 2934 ft 4 kts 108°
2026-04-23 07:46 -3.42730 37.06859 2934 ft 3 kts 126°
2026-04-23 07:46 -3.42748 37.06881 2934 ft 4 kts 131°
2026-04-23 07:46 -3.42768 37.06903 2935 ft 4 kts 131°
2026-04-23 07:46 -3.42787 37.06924 2936 ft 4 kts 131°
2026-04-23 07:47 -3.42806 37.06950 2936 ft 5 kts 124°
2026-04-23 07:47 -3.42828 37.06985 2935 ft 7 kts 120°
2026-04-23 07:47 -3.42859 37.07039 2934 ft 10 kts 119°
2026-04-23 07:47 -3.42901 37.07117 2931 ft 14 kts 117°
2026-04-23 07:48 -3.42938 37.07218 2928 ft 17 kts 101°
2026-04-23 07:48 -3.42943 37.07342 2926 ft 18 kts 88°
2026-04-23 07:48 -3.42938 37.07475 2924 ft 19 kts 87°
2026-04-23 07:48 -3.42933 37.07618 2921 ft 21 kts 89°
2026-04-23 07:49 -3.42928 37.07766 2919 ft 21 kts 87°
2026-04-23 07:49 -3.42921 37.07922 2917 ft 22 kts 87°
2026-04-23 07:49 -3.42913 37.08069 2916 ft 11 kts 79°
2026-04-23 07:49 -3.42868 37.08135 2916 ft 11 kts 54°
2026-04-23 07:50 -3.42896 37.08190 2916 ft 10 kts 193°
2026-04-23 07:50 -3.42915 37.08123 2916 ft 21 kts 273°
2026-04-23 07:50 -3.42938 37.07589 2922 ft 129 kts 268°
2026-04-23 07:50 -3.42985 37.06406 3167 ft 194 kts 268°
2026-04-23 07:51 -3.43046 37.05047 4171 ft 210 kts 266°
2026-04-23 07:51 -3.43125 37.03554 5322 ft 221 kts 265°
2026-04-23 07:51 -3.43235 37.02051 6414 ft 225 kts 259°
2026-04-23 07:51 -3.43877 37.00677 7493 ft 222 kts 223°
2026-04-23 07:52 -3.45167 36.99932 8552 ft 220 kts 192°
2026-04-23 07:52 -3.46681 37.00015 9295 ft 232 kts 155°
2026-04-23 07:52 -3.47933 37.01076 10004 ft 250 kts 119°
2026-04-23 07:52 -3.48700 37.02688 10872 ft 266 kts 114°
2026-04-23 07:53 -3.49514 37.04411 11656 ft 285 kts 115°
2026-04-23 07:53 -3.50402 37.06250 12397 ft 304 kts 115°
2026-04-23 07:53 -3.51355 37.08207 13087 ft 324 kts 115°
2026-04-23 07:53 -3.52359 37.10265 13724 ft 343 kts 115°
2026-04-23 07:54 -3.53430 37.12458 14316 ft 362 kts 115°
2026-04-23 07:54 -3.54564 37.14785 14855 ft 381 kts 115°
2026-04-23 07:54 -3.55757 37.17234 15407 ft 397 kts 115°
2026-04-23 07:54 -3.56977 37.19739 16225 ft 404 kts 115°
2026-04-23 07:55 -3.58211 37.22277 17142 ft 409 kts 115°
2026-04-23 07:55 -3.59451 37.24833 17928 ft 415 kts 114°
2026-04-23 07:55 -3.60712 37.27438 18759 ft 420 kts 114°
2026-04-23 07:55 -3.61995 37.30088 19596 ft 423 kts 114°
2026-04-23 07:56 -3.63270 37.32717 20376 ft 427 kts 114°
2026-04-23 07:56 -3.64579 37.35406 21003 ft 434 kts 115°
2026-04-23 07:56 -3.66238 37.37997 21258 ft 451 kts 127°
2026-04-23 07:56 -3.68535 37.40181 21464 ft 469 kts 141°
2026-04-23 07:57 -3.71424 37.41848 21743 ft 482 kts 153°
2026-04-23 07:57 -3.74494 37.43173 22406 ft 483 kts 155°
2026-04-23 07:57 -3.77581 37.44484 23239 ft 479 kts 155°
2026-04-23 07:57 -3.80626 37.45782 24054 ft 475 kts 155°
2026-04-23 07:58 -3.83685 37.47094 24828 ft 472 kts 155°
2026-04-23 07:58 -3.86689 37.48389 25542 ft 470 kts 155°
2026-04-23 07:58 -3.89664 37.49675 26217 ft 468 kts 155°
2026-04-23 07:58 -3.92658 37.50973 26876 ft 467 kts 155°
2026-04-23 07:59 -3.95637 37.52266 27542 ft 464 kts 155°
2026-04-23 07:59 -3.98601 37.53553 28211 ft 462 kts 155°
2026-04-23 07:59 -4.01533 37.54828 28848 ft 460 kts 155°
2026-04-23 07:59 -4.04479 37.56110 29449 ft 460 kts 155°
2026-04-23 08:00 -4.07408 37.57384 30021 ft 460 kts 155°
2026-04-23 08:00 -4.10342 37.58661 30578 ft 460 kts 155°
2026-04-23 08:00 -4.13270 37.59937 31135 ft 460 kts 155°
2026-04-23 08:00 -4.16211 37.61219 31682 ft 460 kts 155°
2026-04-23 08:01 -4.19141 37.62495 32218 ft 460 kts 156°
2026-04-23 08:01 -4.22074 37.63770 32787 ft 460 kts 156°
2026-04-23 08:01 -4.24989 37.65103 33404 ft 459 kts 153°
2026-04-23 08:01 -4.27858 37.66590 34086 ft 456 kts 151°
2026-04-23 08:02 -4.30687 37.68124 34773 ft 454 kts 151°
2026-04-23 08:02 -4.33470 37.69649 35116 ft 458 kts 151°
2026-04-23 08:02 -4.36307 37.71207 35139 ft 468 kts 151°
2026-04-23 08:03 -4.42111 37.74395 35125 ft 484 kts 151°
2026-04-23 08:03 -4.45077 37.76022 35287 ft 487 kts 151°
2026-04-23 08:03 -4.48079 37.77673 35752 ft 484 kts 151°
2026-04-23 08:03 -4.51007 37.79287 36342 ft 479 kts 151°
2026-04-23 08:04 -4.53899 37.80884 36948 ft 473 kts 151°
2026-04-23 08:04 -4.56756 37.82465 37449 ft 470 kts 151°
2026-04-23 08:04 -4.59635 37.84062 37941 ft 466 kts 151°
2026-04-23 08:04 -4.62446 37.85625 38414 ft 463 kts 151°
2026-04-23 08:05 -4.65247 37.87186 38933 ft 459 kts 151°
2026-04-23 08:05 -4.68020 37.88735 39424 ft 456 kts 151°
2026-04-23 08:05 -4.70809 37.90296 39890 ft 453 kts 151°
2026-04-23 08:05 -4.73550 37.91834 40351 ft 450 kts 151°
2026-04-23 08:06 -4.76263 37.93358 40788 ft 447 kts 151°
2026-04-23 08:06 -4.78953 37.94873 41239 ft 444 kts 151°
2026-04-23 08:06 -4.81656 37.96399 41659 ft 441 kts 151°
2026-04-23 08:06 -4.84323 37.97906 42071 ft 439 kts 151°
2026-04-23 08:07 -4.86980 37.99411 42479 ft 436 kts 151°
2026-04-23 08:07 -4.89624 38.00911 42867 ft 434 kts 151°
2026-04-23 08:07 -4.92223 38.02390 43227 ft 431 kts 151°
2026-04-23 08:07 -4.94848 38.03885 43567 ft 428 kts 151°
2026-04-23 08:08 -4.97434 38.05360 43900 ft 426 kts 151°
2026-04-23 08:08 -4.99986 38.06818 44218 ft 423 kts 151°
2026-04-23 08:08 -5.02550 38.08287 44530 ft 421 kts 151°
2026-04-23 08:08 -5.05106 38.09753 44818 ft 418 kts 151°
2026-04-23 08:09 -5.07618 38.11196 45092 ft 416 kts 151°
2026-04-23 08:09 -5.10111 38.12631 45346 ft 413 kts 150°
2026-04-23 08:09 -5.12597 38.14064 45587 ft 411 kts 150°
2026-04-23 08:09 -5.15072 38.15494 45819 ft 409 kts 150°
2026-04-23 08:10 -5.17537 38.16920 46030 ft 406 kts 150°
2026-04-23 08:10 -5.19979 38.18337 46225 ft 404 kts 150°
2026-04-23 08:10 -5.24862 38.21174 46563 ft 401 kts 150°
2026-04-23 08:11 -5.27267 38.22576 46706 ft 399 kts 150°
2026-04-23 08:11 -5.29656 38.23971 46832 ft 397 kts 150°
2026-04-23 08:11 -5.32027 38.25357 46951 ft 395 kts 150°
2026-04-23 08:11 -5.34426 38.26762 47060 ft 394 kts 150°
2026-04-23 08:12 -5.36787 38.28148 47168 ft 392 kts 150°
2026-04-23 08:12 -5.39135 38.29527 47269 ft 390 kts 150°
2026-04-23 08:12 -5.43800 38.32275 47444 ft 387 kts 150°
2026-04-23 08:13 -5.48440 38.35017 47594 ft 384 kts 150°
2026-04-23 08:13 -5.53029 38.37738 47724 ft 381 kts 150°
2026-04-23 08:14 -5.57576 38.40443 47829 ft 379 kts 150°
2026-04-23 08:14 -5.62087 38.43135 47874 ft 377 kts 150°
2026-04-23 08:15 -5.66611 38.45842 47770 ft 378 kts 150°
2026-04-23 08:15 -5.71144 38.48561 47733 ft 378 kts 150°
2026-04-23 08:16 -5.75630 38.51260 47775 ft 377 kts 150°
2026-04-23 08:16 -5.80143 38.53983 47744 ft 377 kts 150°
2026-04-23 08:17 -5.84635 38.56701 47640 ft 378 kts 150°
2026-04-23 08:17 -5.89160 38.59446 47639 ft 378 kts 150°
2026-04-23 08:18 -5.93657 38.62182 47680 ft 377 kts 150°
2026-04-23 08:18 -5.98147 38.64922 47635 ft 377 kts 150°
2026-04-23 08:19 -6.02635 38.67667 47541 ft 379 kts 150°
2026-04-23 08:19 -6.07156 38.70440 47551 ft 378 kts 149°
2026-04-23 08:20 -6.11648 38.73203 47591 ft 377 kts 149°
2026-04-23 08:20 -6.16108 38.75955 47562 ft 377 kts 149°
2026-04-23 08:21 -6.20579 38.78721 47501 ft 377 kts 149°
2026-04-23 08:21 -6.25062 38.81503 47540 ft 376 kts 149°
2026-04-23 08:22 -6.29516 38.84274 47531 ft 376 kts 149°
2026-04-23 08:22 -6.33976 38.87058 47510 ft 376 kts 149°
2026-04-23 08:23 -6.38425 38.89843 47515 ft 376 kts 149°
2026-04-23 08:23 -6.42854 38.92623 47515 ft 376 kts 149°
2026-04-23 08:24 -6.47308 38.95427 47392 ft 378 kts 149°
2026-04-23 08:24 -6.51759 38.98235 47412 ft 378 kts 149°
2026-04-23 08:25 -6.56215 39.01055 47471 ft 376 kts 149°
2026-04-23 08:25 -6.60640 39.03866 47554 ft 375 kts 149°
2026-04-23 08:26 -6.65075 39.06689 47460 ft 376 kts 149°
2026-04-23 08:26 -6.69501 39.09514 47498 ft 376 kts 149°
2026-04-23 08:27 -6.73911 39.12339 47539 ft 374 kts 149°
2026-04-23 08:27 -6.78299 39.15157 47485 ft 375 kts 149°
2026-04-23 08:28 -6.82700 39.17989 47447 ft 376 kts 149°
2026-04-23 08:28 -6.87133 39.20851 47471 ft 375 kts 149°
2026-04-23 08:29 -6.91513 39.23687 47472 ft 374 kts 149°
2026-04-23 08:29 -6.95879 39.26521 47479 ft 374 kts 149°
2026-04-23 08:30 -7.00272 39.29382 47506 ft 374 kts 149°
2026-04-23 08:30 -7.04636 39.32230 47510 ft 373 kts 149°
2026-04-23 08:31 -7.08994 39.35083 47520 ft 374 kts 148°
2026-04-23 08:31 -7.13358 39.37948 47538 ft 373 kts 148°
2026-04-23 08:32 -7.17696 39.40803 47550 ft 373 kts 148°
2026-04-23 08:32 -7.22025 39.43661 47543 ft 373 kts 148°
2026-04-23 08:33 -7.26376 39.46542 47544 ft 373 kts 148°
2026-04-23 08:33 -7.30715 39.49423 47567 ft 373 kts 148°
2026-04-23 08:34 -7.35046 39.52307 47583 ft 373 kts 148°
2026-04-23 08:34 -7.39370 39.55194 47572 ft 373 kts 148°
2026-04-23 08:35 -7.43728 39.58112 47537 ft 373 kts 148°
2026-04-23 08:35 -7.48048 39.61013 47563 ft 373 kts 148°
2026-04-23 08:36 -7.52367 39.63921 47618 ft 373 kts 148°
2026-04-23 08:36 -7.56672 39.66828 47613 ft 373 kts 148°
2026-04-23 08:37 -7.60970 39.69740 47631 ft 372 kts 148°
2026-04-23 08:37 -7.65297 39.72677 47598 ft 372 kts 147°
2026-04-23 08:38 -7.69593 39.75603 47619 ft 372 kts 147°
2026-04-23 08:38 -7.73868 39.78523 47667 ft 371 kts 147°
2026-04-23 08:39 -7.78134 39.81444 47653 ft 371 kts 147°
2026-04-23 08:39 -7.82415 39.84385 47630 ft 371 kts 147°
2026-04-23 08:40 -7.86694 39.87331 47643 ft 371 kts 147°
2026-04-23 08:40 -7.90954 39.90273 47552 ft 372 kts 147°
2026-04-23 08:41 -7.95249 39.93246 47571 ft 372 kts 147°
2026-04-23 08:41 -7.99514 39.96207 47615 ft 371 kts 147°
2026-04-23 08:42 -8.03756 39.99160 47548 ft 372 kts 147°
2026-04-23 08:42 -8.08005 40.02125 47532 ft 372 kts 147°
2026-04-23 08:43 -8.10169 40.03623 47066 ft 383 kts 147°
2026-04-23 08:43 -8.12420 40.05180 46400 ft 398 kts 144°
2026-04-23 08:43 -8.14557 40.07015 45685 ft 414 kts 139°
2026-04-23 08:43 -8.16689 40.09049 44945 ft 429 kts 137°
2026-04-23 08:44 -8.18879 40.11177 44197 ft 444 kts 137°
2026-04-23 08:44 -8.21150 40.13389 43540 ft 456 kts 137°
2026-04-23 08:44 -8.25707 40.17826 43198 ft 450 kts 137°
2026-04-23 08:45 -8.27920 40.19976 42591 ft 442 kts 137°
2026-04-23 08:45 -8.30147 40.22143 42001 ft 445 kts 137°
2026-04-23 08:45 -8.32363 40.24296 41407 ft 446 kts 137°
2026-04-23 08:45 -8.34618 40.26484 40797 ft 447 kts 136°
2026-04-23 08:46 -8.36842 40.28643 40216 ft 448 kts 136°
2026-04-23 08:46 -8.39099 40.30836 39704 ft 447 kts 136°
2026-04-23 08:46 -8.41348 40.33021 39395 ft 449 kts 136°
2026-04-23 08:46 -8.43582 40.35195 39072 ft 449 kts 136°
2026-04-23 08:47 -8.45859 40.37405 38746 ft 450 kts 136°
2026-04-23 08:47 -8.48086 40.39571 38449 ft 451 kts 136°
2026-04-23 08:47 -8.50380 40.41800 38157 ft 452 kts 136°
2026-04-23 08:47 -8.52628 40.43984 37862 ft 453 kts 136°
2026-04-23 08:48 -8.54912 40.46205 37565 ft 454 kts 136°
2026-04-23 08:48 -8.57168 40.48401 37270 ft 454 kts 136°
2026-04-23 08:48 -8.59458 40.50627 36999 ft 454 kts 136°
2026-04-23 08:48 -8.61736 40.52844 36966 ft 454 kts 136°
2026-04-23 08:49 -8.66304 40.57289 36964 ft 454 kts 136°
2026-04-23 08:49 -8.70847 40.61713 36962 ft 454 kts 136°
2026-04-23 08:50 -8.75396 40.66143 36959 ft 454 kts 136°
2026-04-23 08:50 -8.79956 40.70586 36956 ft 454 kts 136°
2026-04-23 08:51 -8.84522 40.75037 36960 ft 454 kts 136°
2026-04-23 08:51 -8.89065 40.79465 36958 ft 454 kts 136°
2026-04-23 08:52 -8.93614 40.83902 36962 ft 454 kts 136°
2026-04-23 08:52 -8.98150 40.88326 36952 ft 453 kts 136°
2026-04-23 08:53 -9.02675 40.92745 36957 ft 452 kts 136°
2026-04-23 08:53 -9.07233 40.97197 36952 ft 452 kts 136°
2026-04-23 08:54 -9.11746 41.01608 36955 ft 453 kts 136°
2026-04-23 08:54 -9.16292 41.06051 36953 ft 453 kts 136°
2026-04-23 08:55 -9.20820 41.10481 36958 ft 454 kts 136°
2026-04-23 08:55 -9.25350 41.14916 36952 ft 453 kts 136°
2026-04-23 08:56 -9.29900 41.19376 36956 ft 454 kts 136°
2026-04-23 08:56 -9.34424 41.23820 36950 ft 454 kts 136°
2026-04-23 08:57 -9.38937 41.28249 36953 ft 453 kts 136°
2026-04-23 08:57 -9.43618 41.32570 36950 ft 454 kts 140°
2026-04-23 08:58 -9.48490 41.36667 36953 ft 454 kts 140°
2026-04-23 08:58 -9.53358 41.40759 36954 ft 454 kts 140°
2026-04-23 08:59 -9.58189 41.44833 36949 ft 454 kts 140°
2026-04-23 08:59 -9.63055 41.48943 36949 ft 454 kts 140°
2026-04-23 09:00 -9.67897 41.53037 36949 ft 453 kts 140°
2026-04-23 09:00 -9.72741 41.57136 36951 ft 453 kts 140°
2026-04-23 09:01 -9.77606 41.61254 36955 ft 454 kts 140°
2026-04-23 09:01 -9.82446 41.65351 36943 ft 453 kts 140°
2026-04-23 09:02 -9.87281 41.69445 36950 ft 454 kts 140°
2026-04-23 09:02 -9.92136 41.73559 36954 ft 453 kts 140°
2026-04-23 09:03 -9.96960 41.77649 36954 ft 453 kts 140°
2026-04-23 09:03 -10.01792 41.81746 36958 ft 453 kts 140°
2026-04-23 09:04 -10.06646 41.85865 36960 ft 452 kts 140°
2026-04-23 09:04 -10.11465 41.89955 36955 ft 452 kts 140°
2026-04-23 09:05 -10.16300 41.94061 36954 ft 451 kts 140°
2026-04-23 09:05 -10.21118 41.98153 36958 ft 452 kts 140°
2026-04-23 09:06 -10.25915 42.02232 36951 ft 451 kts 140°
2026-04-23 09:06 -10.30728 42.06324 36954 ft 452 kts 140°
2026-04-23 09:07 -10.35579 42.10450 36961 ft 451 kts 140°
2026-04-23 09:07 -10.40390 42.14544 36955 ft 452 kts 140°
2026-04-23 09:08 -10.45206 42.18647 36958 ft 451 kts 140°
2026-04-23 09:08 -10.50037 42.22764 36956 ft 451 kts 140°
2026-04-23 09:09 -10.54837 42.26858 36948 ft 451 kts 140°
2026-04-23 09:09 -10.59659 42.30975 36941 ft 452 kts 140°
2026-04-23 09:10 -10.66877 42.37151 36938 ft 452 kts 140°
2026-04-23 09:11 -10.71683 42.41259 36940 ft 451 kts 140°
2026-04-23 09:11 -10.76270 42.45560 36942 ft 451 kts 134°
2026-04-23 09:12 -10.80589 42.50212 36943 ft 452 kts 134°
2026-04-23 09:12 -10.84891 42.54897 36939 ft 452 kts 133°
2026-04-23 09:13 -10.89181 42.59565 36942 ft 452 kts 133°
2026-04-23 09:13 -10.93472 42.64230 36943 ft 452 kts 133°
2026-04-23 09:14 -10.97780 42.68917 36938 ft 451 kts 133°
2026-04-23 09:14 -11.02054 42.73566 36940 ft 450 kts 133°
2026-04-23 09:15 -11.06329 42.78222 36938 ft 451 kts 133°
2026-04-23 09:15 -11.10611 42.82885 36366 ft 454 kts 133°
2026-04-23 09:15 -11.12771 42.85237 35495 ft 454 kts 133°
2026-04-23 09:16 -11.14927 42.87586 34630 ft 453 kts 133°
2026-04-23 09:16 -11.17070 42.89922 33773 ft 451 kts 133°
2026-04-23 09:16 -11.19190 42.92234 32926 ft 449 kts 133°
2026-04-23 09:16 -11.21321 42.94558 32125 ft 447 kts 133°
2026-04-23 09:17 -11.23429 42.96862 31342 ft 444 kts 132°
2026-04-23 09:17 -11.25252 42.99350 30565 ft 442 kts 121°
2026-04-23 09:17 -11.26507 43.02211 29788 ft 440 kts 109°
2026-04-23 09:17 -11.27274 43.05179 29029 ft 437 kts 104°
2026-04-23 09:18 -11.27924 43.08194 28258 ft 434 kts 103°
2026-04-23 09:18 -11.28539 43.11165 27520 ft 431 kts 103°
2026-04-23 09:18 -11.29152 43.14147 26761 ft 427 kts 103°
2026-04-23 09:18 -11.29753 43.17088 26015 ft 423 kts 103°
2026-04-23 09:19 -11.30339 43.19981 25276 ft 420 kts 102°
2026-04-23 09:19 -11.30591 43.22906 24528 ft 418 kts 90°
2026-04-23 09:19 -11.30140 43.25843 23783 ft 419 kts 77°
2026-04-23 09:19 -11.29004 43.28568 23051 ft 421 kts 64°
2026-04-23 09:20 -11.27316 43.30968 22337 ft 421 kts 55°
2026-04-23 09:20 -11.25436 43.33250 21646 ft 418 kts 53°
2026-04-23 09:20 -11.23566 43.35473 20965 ft 415 kts 52°
2026-04-23 09:20 -11.21703 43.37698 20276 ft 412 kts 52°
2026-04-23 09:21 -11.19876 43.39905 19591 ft 408 kts 52°
2026-04-23 09:21 -11.18069 43.42120 18897 ft 405 kts 53°
2026-04-23 09:21 -11.16283 43.44330 18200 ft 402 kts 52°
2026-04-23 09:21 -11.14530 43.46529 17503 ft 398 kts 53°
2026-04-23 09:22 -11.12801 43.48720 16800 ft 395 kts 53°
2026-04-23 09:22 -11.11059 43.50852 16101 ft 393 kts 48°
2026-04-23 09:22 -11.08915 43.52519 15390 ft 386 kts 30°
2026-04-23 09:22 -11.06418 43.53394 14696 ft 377 kts 11°
2026-04-23 09:23 -11.03852 43.53416 14170 ft 364 kts 357°
2026-04-23 09:23 -11.01405 43.52985 13642 ft 353 kts 342°
2026-04-23 09:23 -10.99305 43.51784 13120 ft 343 kts 320°
2026-04-23 09:23 -10.97851 43.49917 12683 ft 331 kts 296°
2026-04-23 09:24 -10.97254 43.47724 12259 ft 318 kts 272°
2026-04-23 09:24 -10.97562 43.45564 11833 ft 305 kts 247°
2026-04-23 09:24 -10.98687 43.43803 11400 ft 291 kts 221°
2026-04-23 09:24 -11.00351 43.42741 11010 ft 277 kts 200°
2026-04-23 09:25 -11.02130 43.42080 10631 ft 268 kts 196°
2026-04-23 09:25 -11.03871 43.41502 10252 ft 262 kts 194°
2026-04-23 09:25 -11.05603 43.40950 9870 ft 256 kts 194°
2026-04-23 09:25 -11.07288 43.40417 9486 ft 252 kts 194°
2026-04-23 09:26 -11.08937 43.39897 9221 ft 241 kts 194°
2026-04-23 09:26 -11.10526 43.39397 8979 ft 236 kts 193°
2026-04-23 09:26 -11.12085 43.38907 8670 ft 235 kts 193°
2026-04-23 09:26 -11.13654 43.38413 8357 ft 233 kts 193°
2026-04-23 09:27 -11.15188 43.37929 8046 ft 227 kts 193°
2026-04-23 09:27 -11.16680 43.37457 7725 ft 219 kts 193°
2026-04-23 09:27 -11.18115 43.37004 7410 ft 211 kts 194°
2026-04-23 09:27 -11.19491 43.36569 7096 ft 206 kts 193°
2026-04-23 09:28 -11.20871 43.36134 6779 ft 204 kts 193°
2026-04-23 09:28 -11.22221 43.35708 6449 ft 203 kts 194°
2026-04-23 09:28 -11.23563 43.35286 6148 ft 201 kts 194°
2026-04-23 09:28 -11.24912 43.34860 5835 ft 201 kts 193°
2026-04-23 09:29 -11.26248 43.34438 5517 ft 198 kts 193°
2026-04-23 09:29 -11.27560 43.34022 5201 ft 197 kts 194°
2026-04-23 09:29 -11.28869 43.33610 4893 ft 196 kts 193°
2026-04-23 09:29 -11.30157 43.33201 4580 ft 194 kts 194°
2026-04-23 09:30 -11.31465 43.32789 4272 ft 193 kts 194°
2026-04-23 09:30 -11.32739 43.32386 3970 ft 192 kts 194°
2026-04-23 09:30 -11.34012 43.31984 3696 ft 190 kts 194°
2026-04-23 09:30 -11.35253 43.31591 3464 ft 185 kts 194°
2026-04-23 09:31 -11.36465 43.31206 3235 ft 179 kts 194°
2026-04-23 09:31 -11.37648 43.30828 3014 ft 172 kts 194°
2026-04-23 09:31 -11.38767 43.30475 2804 ft 166 kts 194°
2026-04-23 09:31 -11.39882 43.30124 2604 ft 165 kts 195°
2026-04-23 09:32 -11.40956 43.29783 2408 ft 156 kts 194°
2026-04-23 09:32 -11.41962 43.29464 2207 ft 147 kts 194°
2026-04-23 09:32 -11.42929 43.29150 2028 ft 144 kts 195°
2026-04-23 09:32 -11.43881 43.28883 1849 ft 136 kts 189°
2026-04-23 09:33 -11.44799 43.28724 1643 ft 131 kts 186°
2026-04-23 09:33 -11.45688 43.28577 1395 ft 127 kts 188°
2026-04-23 09:33 -11.46553 43.28402 1133 ft 128 kts 190°
2026-04-23 09:33 -11.47423 43.28273 993 ft 125 kts 186°
2026-04-23 09:34 -11.48283 43.28110 845 ft 125 kts 192°
2026-04-23 09:34 -11.49156 43.27945 665 ft 128 kts 190°
2026-04-23 09:34 -11.50039 43.27764 518 ft 127 kts 189°
2026-04-23 09:34 -11.50910 43.27630 344 ft 125 kts 192°
2026-04-23 09:35 -11.51752 43.27474 170 ft 123 kts 192°
2026-04-23 09:35 -11.52569 43.27326 93 ft 98 kts 187°
2026-04-23 09:35 -11.53039 43.27242 98 ft 50 kts 185°
2026-04-23 09:35 -11.53309 43.27196 96 ft 31 kts 193°
2026-04-23 09:36 -11.53492 43.27163 92 ft 26 kts 190°
2026-04-23 09:36 -11.53636 43.27159 88 ft 17 kts 139°
2026-04-23 09:36 -11.53671 43.27277 89 ft 17 kts 102°
2026-04-23 09:36 -11.53647 43.27362 91 ft 13 kts 18°
2026-04-23 09:37 -11.53561 43.27378 94 ft 12 kts
2026-04-23 09:37 -11.53479 43.27393 96 ft 9 kts 17°
2026-04-23 09:37 -11.53463 43.27424 96 ft 4 kts 96°
2026-04-23 09:37 -11.53463 43.27430 97 ft 0 kts 98°
2026-04-23 09:38 -11.53464 43.27431 97 ft 0 kts 98°